Date String (YYYY-MM-DD hh:mm:ss) UTC,Instrument flags,Ambient pressure (hPa),Sample flow (lpm),Bypass flow (lpm),Sample temperature (°C),Ambient temperature (°C),ASC tube jacket temperature (°C),LED temperature (°C),Box temperature (°C),Sample RH (%),Span deviation,Mass concentration (μg/m³),Mass concentration (μg/m³),Mass concentration (μg/m³)
DateTimeUTC,F1_M11,P_M11,Q1_M11,Q2_M11,T1_M11,T2_M11,T3_M11,T4_M11,T5_M11,U1_M11,ZSPAN_M11,X0_M11,X2_M11,X1_M11
2022-09-01 16:00:00,,0829.5,5.00,0.00,30.0,27.1,00.0,38.8,31.7,22.7,0000.0,0016.97,0006.15,0005.02
2022-09-01 16:01:00,,0829.5,5.00,0.00,30.0,27.3,00.0,38.7,31.7,22.6,0000.0,0017.14,0006.10,0004.99
2022-09-01 16:02:00,,0829.4,5.00,0.00,29.9,27.6,00.0,38.7,31.7,22.9,0000.0,0017.72,0006.11,0004.96
2022-09-01 16:03:00,,0829.4,5.00,0.00,29.9,27.9,00.0,38.7,31.7,22.9,0000.0,0018.87,0006.08,0004.93
2022-09-01 16:04:00,,0829.5,4.99,0.00,29.9,28.1,00.0,38.7,31.7,22.7,0000.0,0018.86,0006.05,0004.90
2022-09-01 16:05:00,,0829.5,5.02,0.00,29.9,28.3,00.0,38.7,31.7,22.4,0000.0,0019.14,0006.01,0004.89
2022-09-01 16:06:00,,0829.5,5.00,0.00,30.0,28.5,00.0,38.7,31.8,22.3,0000.0,0019.27,0006.02,0004.89
2022-09-01 16:07:00,,0829.5,5.00,0.00,30.0,28.7,00.0,38.7,31.8,22.6,0000.0,0019.25,0005.95,0004.87
2022-09-01 16:08:00,,0829.5,5.00,0.00,30.0,28.8,00.0,38.7,31.9,22.6,0000.0,0019.25,0005.97,0004.87
2022-09-01 16:09:00,,0829.5,4.98,0.00,30.0,28.9,00.0,38.7,31.9,22.6,0000.0,0018.54,0005.90,0004.86
2022-09-01 16:10:00,,0829.5,5.00,0.00,30.1,28.6,00.0,38.7,31.9,22.6,0000.0,0016.14,0005.86,0004.85
2022-09-01 16:11:00,,0829.5,5.00,0.00,30.0,27.4,00.0,38.7,31.7,23.0,0000.0,0014.99,0005.88,0004.84
2022-09-01 16:12:00,,0829.4,5.00,0.00,29.9,26.8,00.0,38.7,31.6,22.8,0000.0,0014.08,0005.87,0004.84
2022-09-01 16:13:00,,0829.5,4.99,0.00,29.9,27.1,00.0,38.6,31.7,23.3,0000.0,0014.46,0005.82,0004.84
2022-09-01 16:14:00,,0829.4,5.00,0.00,29.9,27.4,00.0,38.6,31.6,22.8,0000.0,0014.24,0005.81,0004.84
2022-09-01 16:15:00,,0829.3,5.00,0.00,29.9,27.7,00.0,38.6,31.6,22.5,0000.0,0014.31,0005.80,0004.84
2022-09-01 16:16:00,,0829.4,4.99,0.00,29.9,28.0,00.0,38.6,31.6,22.5,0000.0,0014.02,0005.81,0004.84
2022-09-01 16:17:00,,0829.3,4.99,0.00,29.9,28.2,00.0,38.6,31.7,22.7,0000.0,0013.71,0005.80,0004.84
2022-09-01 16:18:00,,0829.3,5.02,0.00,29.9,28.4,00.0,38.6,31.7,22.5,0000.0,0013.43,0005.78,0004.85
2022-09-01 16:19:00,,0829.3,5.00,0.00,29.9,28.6,00.0,38.6,31.8,22.5,0000.0,0013.72,0005.75,0004.86
2022-09-01 16:20:00,,0829.4,4.99,0.00,29.9,28.7,00.0,38.6,31.8,22.4,0000.0,0014.44,0005.76,0004.87
2022-09-01 16:21:00,,0829.3,5.01,0.00,30.0,28.8,00.0,38.6,31.9,22.6,0000.0,0015.13,0005.78,0004.88
2022-09-01 16:22:00,,0829.3,4.99,0.00,30.0,28.2,00.0,38.7,31.9,22.7,0000.0,0015.65,0005.75,0004.89
2022-09-01 16:23:00,,0829.4,5.01,0.00,29.9,27.1,00.0,38.6,31.6,23.1,0000.0,0015.55,0005.78,0004.89
2022-09-01 16:24:00,,0829.3,5.00,0.00,29.9,26.9,00.0,38.6,31.6,23.1,0000.0,0014.59,0005.76,0004.88
2022-09-01 16:25:00,,0829.3,4.99,0.00,29.8,27.1,00.0,38.5,31.5,23.1,0000.0,0013.53,0005.76,0004.89
2022-09-01 16:26:00,,0829.3,5.01,0.00,29.8,27.4,00.0,38.5,31.5,23.6,0000.0,0013.76,0005.78,0004.90
2022-09-01 16:27:00,,0829.3,4.99,0.00,29.8,27.7,00.0,38.5,31.5,24.0,0000.0,0014.17,0005.83,0004.92
2022-09-01 16:28:00,,0829.4,4.99,0.00,29.8,28.0,00.0,38.5,31.6,24.1,0000.0,0014.90,0005.86,0004.93
2022-09-01 16:29:00,,0829.2,5.00,0.00,29.8,28.2,00.0,38.5,31.6,23.9,0000.0,0015.92,0005.92,0004.93
2022-09-01 16:30:00,,0829.3,5.00,0.00,29.8,28.4,00.0,38.5,31.7,23.6,0000.0,0017.01,0005.98,0004.94
2022-09-01 16:31:00,,0829.2,5.01,0.00,29.8,28.6,00.0,38.5,31.7,23.7,0000.0,0016.97,0006.02,0004.94
2022-09-01 16:32:00,,0829.3,4.99,0.00,29.9,28.7,00.0,38.6,31.8,23.3,0000.0,0017.06,0006.06,0004.94
2022-09-01 16:33:00,,0829.2,4.99,0.00,29.9,28.8,00.0,38.6,31.8,23.0,0000.0,0016.39,0006.09,0004.92
2022-09-01 16:34:00,,0829.2,5.00,0.00,29.9,28.5,00.0,38.6,31.9,23.2,0000.0,0016.18,0006.06,0004.92
2022-09-01 16:35:00,,0829.2,5.00,0.00,29.9,27.3,00.0,38.6,31.7,23.5,0000.0,0016.41,0006.07,0004.92
2022-09-01 16:36:00,,0829.2,4.99,0.00,29.9,26.9,00.0,38.6,31.6,23.4,0000.0,0016.57,0006.09,0004.92
2022-09-01 16:37:00,,0829.2,5.00,0.00,29.8,27.1,00.0,38.5,31.6,23.3,0000.0,0016.85,0006.09,0004.92
2022-09-01 16:38:00,,0829.2,5.01,0.00,29.8,27.4,00.0,38.5,31.5,23.3,0000.0,0016.34,0006.08,0004.92
2022-09-01 16:39:00,,0829.3,5.01,0.00,29.8,27.7,00.0,38.5,31.5,23.4,0000.0,0015.66,0006.07,0004.91
2022-09-01 16:40:00,,0829.2,5.00,0.00,29.8,28.0,00.0,38.5,31.6,23.3,0000.0,0015.25,0006.05,0004.91
2022-09-01 16:41:00,,0829.2,5.00,0.00,29.8,28.2,00.0,38.5,31.6,23.9,0000.0,0014.85,0006.00,0004.90
2022-09-01 16:42:00,,0829.3,5.00,0.00,29.8,28.4,00.0,38.5,31.7,24.3,0000.0,0014.50,0005.98,0004.89
2022-09-01 16:43:00,,0829.3,5.00,0.00,29.8,28.6,00.0,38.5,31.7,23.9,0000.0,0014.87,0006.01,0004.90
2022-09-01 16:44:00,,0829.3,5.00,0.00,29.9,28.7,00.0,38.5,31.7,24.1,0000.0,0015.40,0006.04,0004.93
2022-09-01 16:45:00,,0829.2,5.00,0.00,29.9,28.8,00.0,38.6,31.8,23.9,0000.0,0015.80,0006.05,0004.94
2022-09-01 16:46:00,,0829.3,4.99,0.00,29.9,28.2,00.0,38.6,31.8,23.6,0000.0,0015.82,0006.08,0004.94
2022-09-01 16:47:00,,0829.3,5.00,0.00,29.9,27.0,00.0,38.6,31.6,24.0,0000.0,0015.88,0006.12,0004.95
2022-09-01 16:48:00,,0829.2,4.99,0.00,29.8,26.8,00.0,38.5,31.6,23.9,0000.0,0015.79,0006.21,0004.96
2022-09-01 16:49:00,,0829.3,5.02,0.00,29.8,27.1,00.0,38.5,31.5,23.8,0000.0,0016.09,0006.17,0004.96
2022-09-01 16:50:00,,0829.3,4.99,0.00,29.7,27.4,00.0,38.4,31.5,24.1,0000.0,0016.97,0006.20,0004.99
2022-09-01 16:51:00,,0829.3,5.00,0.00,29.7,27.7,00.0,38.4,31.5,24.7,0000.0,0017.05,0006.27,0005.02
2022-09-01 16:52:00,,0829.3,4.99,0.00,29.7,27.9,00.0,38.4,31.5,24.5,0000.0,0016.63,0006.32,0005.04
2022-09-01 16:53:00,,0829.3,5.00,0.00,29.8,28.2,00.0,38.5,31.6,24.5,0000.0,0016.19,0006.35,0005.07
2022-09-01 16:54:00,,0829.3,5.00,0.00,29.8,28.4,00.0,38.5,31.7,24.6,0000.0,0015.37,0006.32,0005.07
2022-09-01 16:55:00,,0829.3,5.00,0.00,29.8,28.6,00.0,38.5,31.7,24.6,0000.0,0015.31,0006.36,0005.08
2022-09-01 16:56:00,,0829.2,5.00,0.00,29.8,28.7,00.0,38.5,31.8,24.0,0000.0,0015.18,0006.36,0005.11
2022-09-01 16:57:00,,0829.2,5.00,0.00,29.9,28.3,00.0,38.5,31.7,24.3,0000.0,0015.80,0006.38,0005.15
2022-09-01 16:58:00,,0829.2,5.00,0.00,29.8,27.1,00.0,38.5,31.6,24.0,0000.0,0015.85,0006.41,0005.17
2022-09-01 16:59:00,,0829.2,5.00,0.00,29.8,26.8,00.0,38.5,31.6,23.6,0000.0,0015.58,0006.41,0005.20
